[[{"header":{"parameterUnit":"m.s-1","parameterCategory":1,"la1":30.2991,"la2":30.254,"lo1":-89.0895,"lo2":-89.0444,"dy":0.0017,"dx":0.0017,"nx":28,"ny":28,"refTime":"2025-06-02T21:00:00:Z","depth":0,"parameterNumber":2,"parameterNumberName":"U-component_of_WINDS"},"data":[0,0,0,0,0,0,0,0,0,0,0,0,0,0,0,0,0,0,0,0,0,0,0,0,0,0,0,0,0,0,0,0,0,0,0,0,0,0,0,0,0,0,0,0,0,0,0,0,0,0,0,0,0,0,0,0,0,0,-4.34,-4.3399,0,-4.3308,-4.3307,-4.3306,-4.3167,-4.3164,-4.3162,-4.316,-4.3066,-4.3066,-4.3066,0,0,0,0,0,0,0,0,0,0,0,0,0,-4.3457,-4.3457,-4.34,-4.3399,-4.3398,-4.3308,-4.3307,-4.3306,-4.3167,-4.3164,-4.3161,-4.3158,-4.3066,-4.3066,-4.3066,0,0,0,0,0,0,0,0,0,0,0,0,0,-4.3406,-4.3457,-4.34,-4.3318,-4.3309,-4.3309,-4.3307,-4.3305,-4.3168,-4.3164,-4.316,-4.3157,-4.3066,-4.3066,-4.3066,-4.3139,0,0,-4.3065,-4.3065,0,0,0,0,0,0,0,0,-4.3409,-4.3404,-4.3331,-4.3323,-4.3314,-4.3245,-4.3293,-4.325,-4.3169,-4.3222,-4.3159,-4.3155,-4.3129,-4.3123,-4.3114,-4.3134,-4.313,-4.3065,-4.3065,-4.3065,-4.3065,0,0,0,0,0,0,0,-4.3413,-4.3407,-4.3363,-4.333,-4.332,-4.3286,-4.3275,-4.3284,-4.3197,-4.3217,-4.3206,-4.3197,-4.3124,-4.3115,-4.3111,-4.3129,-4.3065,-4.3065,-4.3065,-4.3065,-4.3205,-4.3209,0,0,0,0,0,0,-4.3428,-4.3411,-4.3366,-4.3361,-4.3353,-4.3288,-4.3275,-4.3271,-4.3197,-4.3182,-4.3201,-4.3191,-4.3117,-4.3111,-4.3107,-4.3187,-4.3065,-4.3065,-4.3064,-4.3201,-4.3206,-4.321,0,0,0,0,0,0,-4.343,-4.3425,-4.337,-4.3383,-4.3373,-4.3291,-4.3287,-4.3271,-4.3262,-4.3185,-4.3169,-4.3208,-4.3114,-4.3108,-4.3132,-4.3182,-4.3064,-4.3064,-4.3197,-4.3203,-4.3208,-4.3348,0,0,0,0,0,0,-4.3432,-4.3427,-4.3453,-4.3385,-4.3373,-4.3396,-4.329,-4.3272,-4.3262,-4.3249,-4.3187,-4.3173,-4.3111,-4.3133,-4.3132,-4.318,-4.3064,-4.3192,-4.3199,-4.3206,-4.3339,-4.3358,-4.3375,0,0,0,0,0,-4.3435,-4.3496,-4.3455,-4.345,-4.3404,-4.3399,-4.3393,-4.3319,-4.3267,-4.3292,-4.3243,-4.3175,-4.3178,-4.3137,-4.3134,-4.3183,-4.3188,-4.3197,-4.3206,-4.3331,-4.3354,-4.3374,0,0,0,0,0,0,-4.3572,-4.3485,-4.3439,-4.348,-4.3448,-4.3376,-4.3406,-4.3347,-4.3329,-4.3318,-4.3228,-4.3215,-4.3251,-4.3219,-4.3176,-4.325,-4.3172,-4.3181,-4.3269,-4.329,-4.3308,-4.3314,-4.3064,0,0,0,0,0,-4.3607,-4.361,-4.3534,-4.3578,-4.3564,-4.3489,-4.3484,-4.343,-4.3394,-4.338,-4.3332,-4.3299,-4.3293,-4.329,-4.328,-4.3335,-4.3319,-4.3367,-4.3385,-4.34,-4.3408,-4.3435,-4.3456,-4.3239,-4.3239,-4.3239,0,0,-4.3679,-4.3632,-4.3639,-4.3604,-4.3573,-4.3579,-4.3478,-4.3488,-4.3491,-4.3381,-4.3401,-4.3366,-4.3323,-4.3364,-4.3379,-4.3338,-4.3465,-4.3411,-4.3424,-4.3423,-4.3446,-4.3467,-4.3485,-4.3245,-4.3244,-4.3243,0,0,-4.3813,-4.3778,-4.381,-4.3782,-4.3737,-4.3687,-4.3695,-4.3632,-4.3604,-4.3623,-4.3541,-4.3545,-4.3535,-4.3509,-4.3494,-4.3622,-4.3559,-4.3622,-4.3715,-4.3743,-4.376,-4.3774,-4.382,-4.3837,-4.363,-4.3631,-4.3631,0,-4.3908,-4.3913,-4.3835,-4.385,-4.3838,-4.374,-4.3772,-4.3749,-4.3703,-4.3697,-4.3652,-4.3639,-4.3604,-4.3637,-4.3669,-4.366,-4.3667,-4.3627,-4.3764,-4.3778,-4.379,-4.3832,-4.385,-4.3639,-4.3638,-4.3637,-4.3636,0,-4.4032,-4.4037,-4.4069,-4.4027,-4.4018,-4.4043,-4.397,-4.3971,-4.3919,-4.3874,-4.3896,-4.3851,-4.383,-4.3834,-4.3784,-4.3861,-4.3837,-4.378,-4.37,-4.382,-4.3858,-4.3874,-4.365,-4.3647,-4.3645,-4.3643,0,0,-4.4246,-4.4164,-4.4176,-4.4157,-4.4101,-4.4104,-4.4125,-4.4105,-4.4107,-4.408,-4.4096,-4.4092,-4.4039,-4.4022,-4.3969,-4.3994,-4.4098,-4.3933,-4.393,-4.3964,-4.418,-4.4223,-4.4243,-4.4057,-4.406,-4.4062,-4.4183,0,-4.4368,-4.4397,-4.433,-4.4376,-4.438,-4.4289,-4.4307,-4.4276,-4.4236,-4.4234,-4.4189,-4.4187,-4.4118,-4.4107,-4.4128,-4.4081,-4.414,-4.4072,-4.407,-4.4071,-4.4082,-4.4262,-4.4306,-4.4423,-4.4198,-4.42,-4.4202,0,-4.4512,-4.4493,-4.4541,-4.4484,-4.4483,-4.4501,-4.4478,-4.4477,-4.4441,-4.441,-4.4394,-4.4332,-4.4349,-4.4275,-4.4298,-4.4253,-4.4249,-4.4227,-4.4229,-4.4225,-4.4142,-4.4261,-4.4458,-4.4476,-4.4225,-4.4223,-4.4222,0,-4.4663,-4.465,-4.4676,-4.4662,-4.4597,-4.4612,-4.4586,-4.4545,-4.4538,-4.4519,-4.4514,-4.4498,-4.4488,-4.4477,-4.4413,-4.4365,-4.4444,-4.4364,-4.4419,-4.4421,-4.4437,-4.4437,-4.4635,-4.4438,-4.4438,-4.4438,-4.4438,0,-4.4805,-4.4837,-4.4743,-4.4759,-4.4793,-4.4716,-4.4752,-4.4717,-4.4683,-4.4691,-4.4613,-4.4622,-4.4538,-4.4539,-4.4489,-4.4516,-4.4513,-4.4488,-4.4474,-4.4494,-4.4497,-4.4488,-4.4478,-4.4442,-4.4441,-4.4441,-4.444,0,-4.4977,-4.4915,-4.4938,-4.4876,-4.4861,-4.4889,-4.4835,-4.4848,-4.4804,-4.4816,-4.4815,-4.4745,-4.4743,-4.4678,-4.4662,-4.4629,-4.4676,-4.4648,-4.4688,-4.4678,-4.4736,-4.4731,-4.4934,-4.4957,-4.4748,-4.475,-4.4752,0,-4.507,-4.5093,-4.5034,-4.5034,-4.5011,-4.5013,-4.5005,-4.4932,-4.4928,-4.489,-4.4908,-4.4899,-4.4887,-4.4888,-4.4836,-4.4824,-4.4794,-4.4866,-4.4791,-4.4811,-4.4794,-4.4793,-4.4795,-4.4881,-4.4884,-4.4886,-4.4888,0,-4.5242,-4.5211,-4.5204,-4.5187,-4.5181,-4.5164,-4.5141,-4.5146,-4.5066,-4.5066,-4.5062,-4.5054,-4.5038,-4.503,-4.5009,-4.4983,-4.4923,-4.4913,-4.4924,-4.4944,-4.4966,-4.4954,-4.4729,-4.4908,-4.4906,-4.4904,-4.4903,-4.4902,-4.5377,-4.5393,-4.5354,-4.5349,-4.5326,-4.5307,-4.5317,-4.5275,-4.527,-4.5251,-4.5209,-4.5213,-4.5178,-4.5143,-4.5123,-4.5125,-4.5088,-4.5106,-4.511,-4.5115,-4.5126,-4.4968,-4.5121,-4.5121,-4.512,-4.5119,-4.5119,0,-4.5544,-4.5515,-4.5511,-4.5483,-4.548,-4.5425,-4.5399,-4.5399,-4.5404,-4.5376,-4.5367,-4.5365,-4.5358,-4.5307,-4.5295,-4.5306,-4.5279,-4.5305,-4.5303,-4.5298,-4.5159,-4.515,-4.5328,-4.5328,-4.5328,-4.5328,-4.5328,-4.5328,-4.563,-4.5655,-4.562,-4.5633,-4.5604,-4.5607,-4.5597,-4.558,-4.5558,-4.5558,-4.5552,-4.552,-4.5484,-4.5468,-4.546,-4.5445,-4.5444,-4.548,-4.5456,-4.5328,-4.5307,-4.5288,-4.5279,-4.5481,-4.5481,-4.5594,-4.5595,-4.5596]},{"header":{"parameterUnit":"m.s-1","parameterCategory":1,"la1":30.2991,"la2":30.254,"lo1":-89.0895,"lo2":-89.0444,"dy":0.0017,"dx":0.0017,"nx":28,"ny":28,"refTime":"2025-06-02T21:00:00:Z","depth":0,"parameterNumber":3,"parameterNumberName":"V-component_of_WINDS"},"data":[0,0,0,0,0,0,0,0,0,0,0,0,0,0,0,0,0,0,0,0,0,0,0,0,0,0,0,0,0,0,0,0,0,0,0,0,0,0,0,0,0,0,0,0,0,0,0,0,0,0,0,0,0,0,0,0,0,0,1.4815,1.4814,0,1.4765,1.4764,1.4764,1.4771,1.4772,1.4773,1.4774,1.4717,1.4714,1.4712,0,0,0,0,0,0,0,0,0,0,0,0,0,1.4912,1.491,1.4815,1.4814,1.4813,1.4765,1.4764,1.4764,1.4771,1.4772,1.4773,1.4774,1.4717,1.4715,1.4712,0,0,0,0,0,0,0,0,0,0,0,0,0,1.4866,1.4909,1.4815,1.4811,1.4811,1.4765,1.4764,1.4763,1.4771,1.4772,1.4773,1.4775,1.4718,1.4715,1.4712,1.4664,0,0,1.4701,1.4699,0,0,0,0,0,0,0,0,1.4869,1.4863,1.4812,1.4812,1.4811,1.4776,1.4778,1.473,1.477,1.4786,1.4774,1.4775,1.4735,1.473,1.4718,1.4662,1.4659,1.4701,1.4698,1.4697,1.4696,0,0,0,0,0,0,0,1.4872,1.4865,1.4795,1.4812,1.4811,1.4811,1.4806,1.4769,1.4753,1.4784,1.4785,1.4779,1.4734,1.4721,1.4716,1.4658,1.4701,1.4698,1.4695,1.4694,1.4561,1.456,0,0,0,0,0,0,1.4877,1.4868,1.4796,1.4793,1.4844,1.4808,1.4803,1.4785,1.4754,1.475,1.4778,1.478,1.4726,1.472,1.4714,1.4657,1.4697,1.4694,1.4692,1.4563,1.4561,1.456,0,0,0,0,0,0,1.4879,1.487,1.4798,1.4831,1.4821,1.4805,1.4786,1.4784,1.477,1.4749,1.4746,1.4767,1.4727,1.4719,1.4677,1.4655,1.4692,1.4689,1.4565,1.4562,1.456,1.4542,0,0,0,0,0,0,1.4882,1.4871,1.4854,1.483,1.482,1.4763,1.4785,1.4782,1.4765,1.4767,1.4738,1.4735,1.4728,1.4682,1.4674,1.4651,1.4686,1.4566,1.4564,1.4561,1.4544,1.4539,1.4535,0,0,0,0,0,1.4885,1.4849,1.4853,1.4844,1.4798,1.4762,1.4756,1.475,1.4763,1.4745,1.4732,1.4736,1.466,1.4678,1.4668,1.4644,1.4568,1.4564,1.4561,1.4546,1.454,1.4535,0,0,0,0,0,0,1.4868,1.4846,1.485,1.4805,1.4786,1.4763,1.474,1.4743,1.4718,1.472,1.4712,1.4706,1.4663,1.465,1.4671,1.4597,1.4615,1.461,1.4607,1.4601,1.4597,1.46,1.4683,0,0,0,0,0,1.486,1.4834,1.4815,1.4778,1.4768,1.4756,1.474,1.4737,1.4716,1.4707,1.469,1.4668,1.4639,1.4619,1.4592,1.4543,1.4537,1.4522,1.4517,1.4514,1.4508,1.4482,1.4475,1.4549,1.4549,1.4549,0,0,1.4841,1.4826,1.4809,1.4774,1.4758,1.473,1.4749,1.4718,1.4696,1.4701,1.4661,1.4649,1.4623,1.4577,1.4556,1.4565,1.4487,1.4509,1.4507,1.4503,1.4478,1.447,1.4464,1.4547,1.4547,1.4547,0,0,1.4792,1.4779,1.4746,1.4731,1.4708,1.4701,1.4693,1.4671,1.4663,1.4623,1.4627,1.4601,1.4551,1.4533,1.4517,1.4464,1.4466,1.4455,1.443,1.4404,1.4398,1.4393,1.4373,1.4366,1.445,1.445,1.445,0,1.4771,1.473,1.4728,1.4698,1.4682,1.4688,1.4655,1.464,1.4608,1.4596,1.4607,1.4546,1.4529,1.4479,1.4467,1.4454,1.4444,1.4457,1.4399,1.4394,1.4389,1.437,1.4363,1.4449,1.4449,1.4449,1.4449,0,1.4705,1.4677,1.4653,1.4626,1.4607,1.4575,1.4567,1.4549,1.4549,1.454,1.4499,1.448,1.4448,1.4437,1.4435,1.4387,1.4393,1.4402,1.4419,1.4381,1.4363,1.4355,1.4447,1.4448,1.4448,1.4448,0,0,1.4641,1.4615,1.4606,1.4594,1.4571,1.4548,1.4516,1.4488,1.4472,1.4451,1.4423,1.4382,1.4391,1.4373,1.437,1.4347,1.4306,1.4358,1.4358,1.4348,1.4251,1.4243,1.4235,1.4308,1.4307,1.4306,1.4253,0,1.459,1.4536,1.4534,1.4484,1.4458,1.4465,1.4437,1.4419,1.441,1.4386,1.4376,1.4347,1.4361,1.435,1.4328,1.4315,1.4286,1.432,1.4281,1.4279,1.4285,1.4226,1.4217,1.4168,1.4246,1.4244,1.4244,0,1.4521,1.45,1.4449,1.443,1.4419,1.4394,1.4369,1.4346,1.4325,1.4321,1.4302,1.4303,1.4269,1.429,1.4243,1.4266,1.4251,1.4242,1.424,1.4235,1.4258,1.4217,1.4152,1.4144,1.4233,1.4234,1.4234,0,1.4479,1.4438,1.4402,1.4391,1.4369,1.4351,1.4341,1.4322,1.4306,1.4283,1.4272,1.4245,1.423,1.4208,1.4201,1.4217,1.4154,1.4174,1.4148,1.4148,1.4132,1.4133,1.4062,1.4125,1.4125,1.4125,1.4125,0,1.442,1.4388,1.4383,1.436,1.4324,1.4322,1.4286,1.4277,1.426,1.4235,1.4239,1.4215,1.4208,1.4183,1.4177,1.4138,1.4132,1.4126,1.4124,1.4124,1.4125,1.4112,1.4115,1.4123,1.4124,1.4124,1.4124,0,1.4366,1.4361,1.4322,1.4305,1.43,1.4274,1.4259,1.4237,1.4231,1.4199,1.4191,1.4179,1.415,1.4142,1.4105,1.4101,1.4056,1.4058,1.4063,1.4062,1.4036,1.4038,1.3953,1.3941,1.4013,1.4013,1.4012,0,1.4328,1.4303,1.4285,1.427,1.4259,1.4234,1.4218,1.4216,1.4199,1.4175,1.4155,1.4127,1.4103,1.4055,1.4043,1.4015,1.4016,1.3988,1.4011,1.4012,1.4014,1.4015,1.4012,1.3983,1.3982,1.3981,1.3981,0,1.426,1.426,1.4238,1.4215,1.4196,1.4178,1.416,1.4146,1.4142,1.4122,1.4093,1.4075,1.404,1.4011,1.3983,1.3971,1.3974,1.3974,1.3966,1.3965,1.3969,1.3965,1.4049,1.3975,1.3976,1.3976,1.3977,1.3977,1.4212,1.4191,1.4175,1.415,1.4138,1.4121,1.41,1.4092,1.4068,1.4041,1.4041,1.4009,1.399,1.3954,1.394,1.3914,1.3922,1.3911,1.3908,1.3904,1.3902,1.3975,1.3909,1.3909,1.3909,1.3909,1.391,0,1.4144,1.4135,1.4113,1.4089,1.4069,1.4078,1.4059,1.4041,1.4014,1.3997,1.3975,1.3942,1.3914,1.3901,1.3873,1.3855,1.3856,1.3847,1.3848,1.3845,1.3897,1.3906,1.3847,1.3847,1.3847,1.3847,1.3847,1.3847,1.4106,1.4071,1.4069,1.4028,1.4018,1.3989,1.3978,1.3962,1.3949,1.3912,1.389,1.3883,1.3867,1.3839,1.3813,1.381,1.3799,1.3789,1.3787,1.3835,1.3841,1.3847,1.3855,1.3787,1.3787,1.3737,1.3736,1.3736]}]]